Weather History for KPSC - September, 2013

Change the Weather History Date:

Wednesday, September 18, 2013

  Actual Average Record
Temperature  
Mean Temperature 62 °F 63 °F  
Max Temperature 75 °F 80 °F 92 °F (2000)
Min Temperature 49 °F 46 °F 38 °F (1992)
Degree Days  
Heating Degree Days 3 3  
Month to date heating degree days 8 32  
Since 1 July heating degree days 8 44  
Cooling Degree Days 0 1  
Month to date cooling degree days 130 43  
Year to date cooling degree days 992 700  
Growing Degree Days 14 (Base 50)    
Moisture  
Dew Point 43 °F    
Average Humidity 53    
Maximum Humidity 77    
Minimum Humidity 29    
Precipitation  
Precipitation 0.00 in 0.01 in 0.31 in (1969)
Month to date precipitation 0.70 0.19  
Year to date precipitation 4.02 5.67  
Snow  
Snow 0.00 in - - ()
Snow Depth 0.00 in    
Sea Level Pressure  
Sea Level Pressure 29.96 in    
Wind  
Wind Speed 9 mph (SW)    
Max Wind Speed 17 mph    
Max Gust Speed 25 mph    
Visibility 10 miles    
Events      
T = Trace of Precipitation, MM = Missing Value Source: NWS Daily Summary

Daily Weather History Graph

Daily Weather History Graph

Search for Another Location

Airport or City:

Trip Planner

Search our weather history database for the weather conditions in past years. The results will help you decide how hot, cold, wet, or windy it might be!

Date:

Astronomy

Sep. 18, 2013 Rise Set
Actual Time 6:38 AM PDT 7:01 PM PDT
Civil Twilight 6:08 AM PDT 7:31 PM PDT
Nautical Twilight 5:33 AM PDT 8:06 PM PDT
Astronomical Twilight 4:56 AM PDT 8:43 PM PDT
Moon 6:25 PM PDT (9/18) 5:46 AM PDT (9/18)
Length of Visible Light 13h 22m
Length of Day
12h 22m
Waxing Gibbous, 99% of the Moon is Illuminated
Sep 18
Waxing Gibbous
Sep 19
Full
Sep 26
Last Quarter
Oct 4
New
Oct 11
First Quarter

Hourly Weather History & Observations

Time (PDT) Temp. Dew Point Humidity Pressure Visibility Wind Dir Wind Speed Gust Speed Precip Events Conditions
12:53 AM 57.9 °F 45.0 °F 62% 29.84 in 10.0 mi SW 10.4 mph - N/A   Clear
1:53 AM 59.0 °F 44.1 °F 58% 29.86 in 10.0 mi SW 9.2 mph 19.6 mph N/A   Overcast
2:53 AM 57.9 °F 44.1 °F 60% 29.87 in 10.0 mi SW 10.4 mph - N/A   Partly Cloudy
3:53 AM 57.0 °F 44.1 °F 62% 29.89 in 10.0 mi WSW 11.5 mph - N/A   Partly Cloudy
4:53 AM 55.0 °F 45.0 °F 69% 29.91 in 10.0 mi WSW 9.2 mph - N/A   Clear
5:53 AM 55.9 °F 44.1 °F 64% 29.93 in 10.0 mi SW 10.4 mph - N/A   Scattered Clouds
6:53 AM 55.9 °F 44.1 °F 64% 29.95 in 10.0 mi West 8.1 mph - N/A   Scattered Clouds
7:53 AM 57.0 °F 45.0 °F 64% 29.96 in 10.0 mi South 3.5 mph - N/A   Overcast
8:53 AM 62.1 °F 45.0 °F 53% 29.97 in 10.0 mi SW 8.1 mph - N/A   Clear
9:53 AM 66.0 °F 43.0 °F 43% 29.98 in 10.0 mi SW 12.7 mph - N/A   Clear
10:53 AM 69.1 °F 43.0 °F 39% 29.98 in 10.0 mi WSW 12.7 mph - N/A   Partly Cloudy
11:53 AM 71.1 °F 41.0 °F 34% 29.99 in 10.0 mi WSW 9.2 mph 17.3 mph N/A   Partly Cloudy
12:53 PM 72.0 °F 39.0 °F 30% 29.98 in 10.0 mi WNW 8.1 mph - N/A   Clear
1:53 PM 73.9 °F 41.0 °F 30% 29.98 in 10.0 mi SSW 15.0 mph - N/A   Partly Cloudy
2:53 PM 73.9 °F 41.0 °F 30% 29.98 in 10.0 mi SW 17.3 mph 25.3 mph N/A   Partly Cloudy
3:53 PM 73.9 °F 39.9 °F 29% 29.97 in 10.0 mi SW 8.1 mph - N/A   Clear
4:53 PM 75.0 °F 41.0 °F 29% 29.97 in 10.0 mi SW 10.4 mph - N/A   Clear
5:53 PM 73.0 °F 41.0 °F 31% 29.97 in 10.0 mi SW 11.5 mph - N/A   Clear
6:53 PM 71.1 °F 42.1 °F 35% 29.98 in 10.0 mi SSW 6.9 mph - N/A   Clear
7:53 PM 66.0 °F 44.1 °F 45% 30.00 in 10.0 mi SSW 3.5 mph - N/A   Clear
8:53 PM 59.0 °F 46.0 °F 62% 30.03 in 10.0 mi NNE 3.5 mph - N/A   Clear
9:53 PM 59.0 °F 46.0 °F 62% 30.04 in 10.0 mi Calm Calm - N/A   Clear
10:53 PM 54.0 °F 46.0 °F 75% 30.04 in 10.0 mi Calm Calm - N/A   Clear
11:53 PM 54.0 °F 46.9 °F 77% 30.05 in 10.0 mi Calm Calm - N/A   Clear